AirNav   Air Wisconsin pilot careers
 
 350 users online  

UT24 Strawberry Valley Estates Airport
Alton, Utah, USA

GOING TO ALTON?


FAA INFORMATION EFFECTIVE 29 MARCH 2018

Location

FAA Identifier: UT24
Lat/Long: 37-29-35.9290N / 112-38-43.7670W
37-29.598817N / 112-38.729450W
37.4933136 / -112.6454908
(estimated)
Elevation: 8141 ft. / 2481.4 m (surveyed)
Variation: 14E (1985)
From city: 9 miles NW of ALTON, UT
Time zone: UTC -6 (UTC -7 during Standard Time)
Zip code: 84762

Airport Operations

Airport use: Private use. Permission required prior to landing
Control tower: no
ARTCC: SALT LAKE CITY CENTER
FSS: CEDAR CITY FLIGHT SERVICE STATION
Attendance: MAY-OCT DAYLIGHT HOURS
Wind indicator: yes
Segmented circle: no

Airport Communications

UNICOM: 122.8

Nearby radio navigation aids

VOR radial/distance  VOR name  Freq  Var
BCEr219/20.0BRYCE CANYON VORTAC112.8015E
EHKr115/26.7ENOCH VOR/DME117.3016E

 
NDB name  Hdg/Dist  Freq  Var  ID
COLORADO CITY016/36.440313EAZC .- --.. -.-.

Airport Services

Airframe service: NONE
Powerplant service: NONE

Runway Information

Runway 3/21

Dimensions: 4200 x 50 ft. / 1280 x 15 m
Surface: dirt
RUNWAY 3  RUNWAY 21
Traffic pattern: leftleft

Airport Ownership and Management from official FAA records

Ownership: Privately-owned
Owner: PINE MEADOW ESTATES, INC.
BOX 471
CEDAR CITY, UT 84720
Phone 435-586-9338
Manager: GARY HACKBART
HC 82 BOX 1169
DUCK CREEK VILLAGE, UT 84762
Phone 435-682-2569
714-544-9223

Instrument Procedures

There are no published instrument procedures at UT24.

Some nearby airports with instrument procedures:

U55 - Panguitch Municipal Airport (24 nm NE)
KCDC - Cedar City Regional Airport (25 nm NW)
KBCE - Bryce Canyon Airport (27 nm NE)
KKNB - Kanab Municipal Airport (29 nm S)
KAZC - Colorado City Municipal Airport (37 nm SW)
 
Loc | Ops | Rwys | IFR | FBO | Links
Com | Nav | Svcs | Stats | Notes

AirNav Hotels Sweepstakes
 
Area around UT24 (Strawberry Valley Estates Airport)
 
Road maps at: MapQuest Bing Google
 
Aerial photo
No photo
 
Sectional chart

 
Airport distance calculator
Flying to Strawberry Valley Estates Airport? Find the distance to fly.

From to UT24

Sunrise and sunset
Times for 24-Apr-2018
 Local
(UTC-6)
 Zulu
(UTC)
Morning civil twilight06:1712:17
Sunrise06:4512:45
Sunset20:1302:13
Evening civil twilight20:4002:40

Current date and time
Zulu (UTC)  24-Apr-2018 08:57:26
Local (UTC-6)  24-Apr-2018 02:57:26
 
METAR
KCDC 
25nm NW 
240853Z AUTO 17003KT 10SM CLR 06/01 A3017 RMK AO2 SLP164 T00610006 51008
KBCE 
27nm NE 
240853Z AUTO 28006KT 10SM CLR 00/M04 A3024 RMK AO2 SLP157 T00001039 50001
KAZC 
37nm SW 
240835Z AUTO 15003KT 10SM CLR 07/M03 A3012 RMK AO2
TAF
KCDC 
25nm NW 
240525Z 2406/2506 VRB04KT P6SM SKC FM241800 03009KT P6SM SCT120 FM250300 VRB04KT P6SM SKC
KBCE 
27nm NE 
240525Z 2406/2506 28006KT P6SM SCT120 FM241800 30010KT P6SM SCT120
NOTAMs
Click for the latest NOTAMs
NOTAMs are issued by the DoD/FAA and will open in a separate window not controlled by AirNav.

 

 
 

Would you like to see your business listed on this page?

 If your business provides an interesting product or service to pilots, flight crews, aircraft, or users of the Strawberry Valley Estates Airport, you should consider listing it here.  To start the listing process, click on the button below
 
Add a business
 

Other Pages about Strawberry Valley Estates Airport

Update a link
 
Copyright © AirNav, LLC. All rights reserved. Privacy Policy  Contact